TimeCST,TemperatureF,Dew PointF,Humidity,Sea Level PressureIn,VisibilityMPH,Wind Direction,Wind SpeedMPH,Gust SpeedMPH,PrecipitationIn,Events,Conditions,WindDirDegrees,DateUTC
12:15 AM,44.6,44.6,100,29.73,7.0,Calm,Calm,-,N/A,,Overcast,0,2012-12-17 06:15:00
12:35 AM,44.6,44.6,100,29.73,7.0,NNW,5.8,-,N/A,,Mostly Cloudy,340,2012-12-17 06:35:00
12:55 AM,44.6,44.6,100,29.72,7.0,Calm,Calm,-,N/A,,Mostly Cloudy,0,2012-12-17 06:55:00
1:15 AM,44.6,44.6,100,29.72,7.0,Calm,Calm,-,N/A,,Overcast,0,2012-12-17 07:15:00
1:35 AM,44.6,44.6,100,29.72,7.0,NNW,3.5,-,N/A,,Overcast,340,2012-12-17 07:35:00
1:55 AM,44.6,44.6,100,29.73,7.0,Calm,Calm,-,N/A,,Overcast,0,2012-12-17 07:55:00
2:15 AM,44.6,44.6,100,29.73,7.0,Calm,Calm,-,N/A,,Mostly Cloudy,0,2012-12-17 08:15:00
2:35 AM,44.6,44.6,100,29.72,5.0,Calm,Calm,-,N/A,,Mostly Cloudy,0,2012-12-17 08:35:00
2:55 AM,44.6,44.6,100,29.72,7.0,Calm,Calm,-,N/A,,Mostly Cloudy,0,2012-12-17 08:55:00
3:15 AM,44.6,44.6,100,29.71,7.0,Calm,Calm,-,N/A,,Clear,0,2012-12-17 09:15:00
3:35 AM,42.8,42.8,100,29.71,5.0,Calm,Calm,-,N/A,,Clear,0,2012-12-17 09:35:00
3:55 AM,42.8,42.8,100,29.70,5.0,NNW,3.5,-,N/A,,Clear,340,2012-12-17 09:55:00
4:15 AM,42.8,42.8,100,29.71,5.0,Calm,Calm,-,N/A,,Clear,0,2012-12-17 10:15:00
4:35 AM,42.8,42.8,100,29.70,5.0,NNE,3.5,-,N/A,,Clear,20,2012-12-17 10:35:00
4:55 AM,42.8,42.8,100,29.69,4.0,NE,3.5,-,N/A,,Scattered Clouds,40,2012-12-17 10:55:00
5:15 AM,42.8,42.8,100,29.68,5.0,NE,3.5,-,N/A,,Mostly Cloudy,50,2012-12-17 11:15:00
5:35 AM,42.8,42.8,100,29.68,5.0,ENE,5.8,-,N/A,,Overcast,70,2012-12-17 11:35:00
5:55 AM,42.8,42.8,100,29.67,4.0,ENE,4.6,-,N/A,,Overcast,70,2012-12-17 11:55:00
6:15 AM,44.6,44.6,100,29.67,5.0,ENE,4.6,-,N/A,,Overcast,70,2012-12-17 12:15:00
6:35 AM,44.6,44.6,100,29.67,5.0,North,4.6,-,N/A,,Overcast,10,2012-12-17 12:35:00
6:55 AM,44.6,44.6,100,29.67,5.0,Calm,Calm,-,N/A,,Overcast,0,2012-12-17 12:55:00
7:15 AM,44.6,44.6,100,29.67,3.0,Calm,Calm,-,N/A,,Overcast,0,2012-12-17 13:15:00
7:35 AM,44.6,44.6,100,29.66,3.0,NE,3.5,-,N/A,,Overcast,50,2012-12-17 13:35:00
7:55 AM,44.6,44.6,100,29.65,3.0,NNE,3.5,-,N/A,,Overcast,30,2012-12-17 13:55:00
8:15 AM,44.6,44.6,100,29.65,3.0,ENE,4.6,-,N/A,,Overcast,70,2012-12-17 14:15:00
8:35 AM,44.6,44.6,100,29.66,3.0,Calm,Calm,-,N/A,,Overcast,0,2012-12-17 14:35:00
8:55 AM,44.6,44.6,100,29.66,3.0,Calm,Calm,-,N/A,,Overcast,0,2012-12-17 14:55:00
9:15 AM,44.6,44.6,100,29.66,3.0,North,3.5,-,N/A,,Overcast,360,2012-12-17 15:15:00
9:35 AM,44.6,44.6,100,29.67,3.0,Calm,Calm,-,N/A,,Overcast,0,2012-12-17 15:35:00
9:55 AM,44.6,44.6,100,29.66,3.0,Calm,Calm,-,N/A,,Overcast,0,2012-12-17 15:55:00
10:15 AM,46.4,44.6,93,29.66,4.0,North,3.5,-,N/A,,Overcast,360,2012-12-17 16:15:00
10:35 AM,46.4,46.4,100,29.65,4.0,NE,3.5,-,N/A,,Overcast,40,2012-12-17 16:35:00
10:55 AM,46.4,46.4,100,29.65,4.0,Calm,Calm,-,N/A,,Overcast,0,2012-12-17 16:55:00
11:15 AM,46.4,46.4,100,29.64,4.0,NW,3.5,-,N/A,,Overcast,320,2012-12-17 17:15:00
11:35 AM,46.4,46.4,100,29.64,4.0,NW,5.8,-,N/A,,Overcast,320,2012-12-17 17:35:00
11:55 AM,46.4,46.4,100,29.64,3.0,NW,4.6,-,N/A,Thunderstorm,Overcast,320,2012-12-17 17:55:00
12:15 PM,48.2,46.4,93,29.63,4.0,WNW,5.8,-,N/A,,Overcast,290,2012-12-17 18:15:00
12:35 PM,48.2,46.4,93,29.63,3.0,WNW,6.9,-,N/A,,Overcast,290,2012-12-17 18:35:00
12:55 PM,-9999,-9999,N/A,29.62,5.0,West,11.5,-,N/A,,Haze,280,2012-12-17 18:55:00
1:15 PM,50.0,46.4,87,29.61,5.0,West,12.7,-,N/A,,Mostly Cloudy,280,2012-12-17 19:15:00
1:35 PM,46.4,44.6,93,29.62,3.0,NW,12.7,-,N/A,,Overcast,310,2012-12-17 19:35:00
1:55 PM,-9999,-9999,N/A,29.62,2.0,WNW,10.4,-,N/A,,Overcast,300,2012-12-17 19:55:00
2:15 PM,-9999,-9999,N/A,29.63,1.5,NW,9.2,16.1,N/A,,Overcast,310,2012-12-17 20:15:00
2:35 PM,44.6,44.6,100,29.63,1.8,NW,10.4,-,N/A,,Overcast,320,2012-12-17 20:35:00
2:55 PM,-9999,-9999,N/A,29.64,2.0,NW,10.4,-,N/A,,Overcast,310,2012-12-17 20:55:00
3:15 PM,42.8,42.8,100,29.65,2.0,NW,10.4,-,N/A,,Overcast,320,2012-12-17 21:15:00
3:35 PM,-9999,-9999,N/A,29.65,1.8,NW,6.9,-,N/A,,Overcast,320,2012-12-17 21:35:00
3:55 PM,42.8,42.8,100,29.66,3.0,WNW,10.4,-,N/A,,Overcast,290,2012-12-17 21:55:00
6:35 PM,41.0,41.0,100,29.72,7.0,WNW,6.9,-,N/A,,Overcast,300,2012-12-18 00:35:00
6:55 PM,41.0,41.0,100,29.73,7.0,WNW,11.5,-,N/A,Rain,Light Rain,290,2012-12-18 00:55:00
7:15 PM,41.0,41.0,100,29.74,7.0,WNW,10.4,-,N/A,Rain,Light Rain,300,2012-12-18 01:15:00
7:35 PM,41.0,41.0,100,29.74,7.0,WNW,10.4,-,N/A,,Light Drizzle,300,2012-12-18 01:35:00
7:55 PM,-9999,-9999,N/A,29.75,7.0,WNW,10.4,-,N/A,,Overcast,300,2012-12-18 01:55:00
8:15 PM,41.0,39.2,93,29.75,7.0,WNW,11.5,-,N/A,,Overcast,300,2012-12-18 02:15:00
8:35 PM,41.0,39.2,93,29.76,5.0,WNW,10.4,-,N/A,,Overcast,300,2012-12-18 02:35:00
8:55 PM,41.0,39.2,93,29.77,7.0,WNW,8.1,-,N/A,,Overcast,300,2012-12-18 02:55:00
9:15 PM,41.0,39.2,93,29.77,7.0,WNW,10.4,-,N/A,,Overcast,300,2012-12-18 03:15:00
9:35 PM,41.0,37.4,87,29.78,7.0,WNW,6.9,-,N/A,,Overcast,290,2012-12-18 03:35:00
9:55 PM,41.0,37.4,87,29.78,7.0,WNW,9.2,-,N/A,,Overcast,290,2012-12-18 03:55:00
10:15 PM,41.0,37.4,87,29.79,7.0,West,5.8,-,N/A,,Overcast,280,2012-12-18 04:15:00
10:35 PM,41.0,37.4,87,29.79,7.0,West,8.1,-,N/A,,Overcast,270,2012-12-18 04:35:00
10:55 PM,41.0,37.4,87,29.80,7.0,WNW,8.1,-,N/A,,Overcast,290,2012-12-18 04:55:00
11:15 PM,41.0,37.4,87,29.81,7.0,West,6.9,-,N/A,,Overcast,280,2012-12-18 05:15:00
11:35 PM,41.0,37.4,87,29.82,7.0,WNW,6.9,-,N/A,,Overcast,290,2012-12-18 05:35:00
11:55 PM,41.0,37.4,87,29.82,7.0,WNW,5.8,-,N/A,,Overcast,290,2012-12-18 05:55:00